"Pseudo-MPEC" for SCAX011

Created 2023 Mar 22 16:22:16 UT using Find_Orb

Click here for an explanation of pseudo-MPECs

 
 Astrometry: 
     SCAX011* C2023 03 13u,+fZ7wT-AEvVWQ@1N`wPAstrometry,Qo%.Ag9p!)redacted;4L92
     SCAX011  C2023 03 13lZhyVgclickO2x'Rdhere/ma_y8/$FP*gDT*x/32!mTTIB*5@1B*L92
     SCAX011  C2023 03 13@5forFY4^hl_sv=+0o:w'pk[JnWT^R?explanation69o\M)uouZL92

Station data:
(L92) San Costantino  (N38.705391 E16.002110)  Italy.  Observer T. Scarmato.
   0.25-m Newtonian reflector + CCD.

Orbital elements:  SCAX011
   Perihelion 2023 May 12.01312 +/- 1249 TT =  0:18:53 (JD 2460076.51312)
Epoch 2023 Mar 14.0 TT = JDT 2460017.5   Earth MOID: 0.0209   Ve: 0.0569
M 279.90118443 +/- 80               (J2000 ecliptic)             AutoNEOCP
n   1.35730514 +/- 0.8              Peri.  200.00186 +/- 60
a   0.80788780 +/- 0.318            Node    58.45028 +/- 41
e   0.2135575 +/- 0.223             Incl.   11.14168 +/- 40
P   0.73/265.23d           H 15.77  G  0.15   U 12.7  SR
q 0.63535730 +/- 2.9    Q 0.98041830 +/- 88.9
From 3 observations 2023 Mar. 13 (40.3 min); mean residual 0".26
Residuals in arcseconds: 
230313 L92  .27+  .00     230313 L92  .52-  .01-    230313 L92  .25+  .01+    

Ephemerides (geocentric):
Date (UTC) HH   RA             Dec           delta  r     elong  mag " sig PA
---- --------  ------------   ------------  ------ ------ -----  --- --------
2023 03 22 16  01 53 03.330   +36 53 37.95  .35936 .77912  44.0 17.7 1076 143
2023 03 22 17  01 53 01.692   +36 53 09.85  .35923 .77895  44.0 17.7 1087 143
2023 03 22 18  01 53 00.041   +36 52 41.55  .35911 .77877  43.9 17.7 1098 143
2023 03 22 19  01 52 58.377   +36 52 13.07  .35899 .77860  43.9 17.7 1109 143
2023 03 22 20  01 52 56.700   +36 51 44.40  .35887 .77842  43.9 17.7 1120 143
2023 03 22 21  01 52 55.010   +36 51 15.53  .35875 .77825  43.8 17.7 1131 143
2023 03 22 22  01 52 53.307   +36 50 46.47  .35862 .77808  43.8 17.7 1142 143
2023 03 22 23  01 52 51.591   +36 50 17.21  .35850 .77790  43.7 17.7 1153 143
2023 03 23 00  01 52 49.862   +36 49 47.77  .35838 .77773  43.7 17.7 1164 143
2023 03 23 01  01 52 48.120   +36 49 18.13  .35826 .77755  43.6 17.7 1175 143
2023 03 23 02  01 52 46.365   +36 48 48.29  .35813 .77738  43.6 17.7 1186 143
2023 03 23 03  01 52 44.597   +36 48 18.26  .35801 .77720  43.5 17.7 1198 143
2023 03 23 04  01 52 42.816   +36 47 48.04  .35789 .77703  43.5 17.7 1209 143
2023 03 23 05  01 52 41.021   +36 47 17.62  .35777 .77686  43.5 17.7 1220 143
2023 03 23 06  01 52 39.214   +36 46 47.01  .35765 .77668  43.4 17.7 1232 143
2023 03 23 07  01 52 37.394   +36 46 16.20  .35752 .77651  43.4 17.7 1243 143
2023 03 23 08  01 52 35.561   +36 45 45.19  .35740 .77633  43.3 17.8 1255 143
2023 03 23 09  01 52 33.714   +36 45 13.98  .35728 .77616  43.3 17.8 1267 142
2023 03 23 10  01 52 31.855   +36 44 42.58  .35716 .77599  43.2 17.8 1278 142
2023 03 23 11  01 52 29.982   +36 44 10.98  .35704 .77581  43.2 17.8 1290 142
2023 03 23 12  01 52 28.097   +36 43 39.18  .35691 .77564  43.2 17.8 1302 142
2023 03 23 13  01 52 26.198   +36 43 07.19  .35679 .77546  43.1 17.8 1314 142
2023 03 23 14  01 52 24.286   +36 42 34.99  .35667 .77529  43.1 17.8 1326 142
2023 03 23 15  01 52 22.361   +36 42 02.59  .35655 .77511  43.0 17.8 1338 142
2023 03 23 16  01 52 20.423   +36 41 30.00  .35643 .77494  43.0 17.8 1350 142
2023 03 23 17  01 52 18.472   +36 40 57.20  .35631 .77477  42.9 17.8 1362 142
2023 03 23 18  01 52 16.508   +36 40 24.21  .35618 .77459  42.9 17.8 1374 142
2023 03 23 19  01 52 14.531   +36 39 51.01  .35606 .77442  42.8 17.8 1387 142
2023 03 23 20  01 52 12.541   +36 39 17.61  .35594 .77424  42.8 17.8 1399 142
2023 03 23 21  01 52 10.537   +36 38 44.01  .35582 .77407  42.7 17.8 1411 142
2023 03 23 22  01 52 08.521   +36 38 10.20  .35570 .77389  42.7 17.8 1424 142
2023 03 23 23  01 52 06.491   +36 37 36.20  .35558 .77372  42.7 17.8 1436 142
2023 03 24 00  01 52 04.448   +36 37 01.99  .35546 .77355  42.6 17.8 1449 142
2023 03 24 01  01 52 02.392   +36 36 27.57  .35533 .77337  42.6 17.8 1461 142
2023 03 24 02  01 52 00.323   +36 35 52.95  .35521 .77320  42.5 17.8 1474 142
2023 03 24 03  01 51 58.241   +36 35 18.13  .35509 .77302  42.5 17.8 1487 142
2023 03 24 04  01 51 56.146   +36 34 43.11  .35497 .77285  42.4 17.8 1499 142
2023 03 24 05  01 51 54.038   +36 34 07.87  .35485 .77267  42.4 17.8 1512 142
2023 03 24 06  01 51 51.916   +36 33 32.43  .35473 .77250  42.3 17.8 1525 142
2023 03 24 07  01 51 49.782   +36 32 56.79  .35461 .77233  42.3 17.8 1538 142
2023 03 24 08  01 51 47.634   +36 32 20.94  .35449 .77215  42.3 17.8 1551 141
2023 03 24 09  01 51 45.473   +36 31 44.88  .35437 .77198  42.2 17.8 1564 141
2023 03 24 10  01 51 43.299   +36 31 08.61  .35425 .77180  42.2 17.8 1577 141
2023 03 24 11  01 51 41.112   +36 30 32.14  .35413 .77163  42.1 17.8 1590 141
2023 03 24 12  01 51 38.912   +36 29 55.46  .35401 .77145  42.1 17?? 1604 141
2023 03 24 13  01 51 36.699   +36 29 18.57  .35388 .77128  42.0 17?? 1617 141
2023 03 24 14  01 51 34.472   +36 28 41.47  .35376 .77111  42.0 17?? 1630 141
2023 03 24 15  01 51 32.233   +36 28 04.16  .35364 .77093  41.9 17?? 1644 141